{"data":{"norad_id":67312,"epoch":"2026-09-19T19:47:09.090528Z","epoch_age_seconds":133742,"freshness":"FRESH","line1":"1 67312U 26002H   26262.82441077  .00010521  00000+0  39123-3 0  9999","line2":"2 67312  43.0025 308.5216 0001408 271.4958  88.5733 15.27585310 40778","mean_motion":15.2758531,"eccentricity":0.0001408,"inclination_deg":43.0025,"raan_deg":308.5216,"arg_perigee_deg":271.4958,"mean_anomaly_deg":88.5733,"bstar":0.00039123,"rev_number":4077,"period_min":94.266421035431,"perigee_km":482.06714327185,"apogee_km":483.99924879905,"semimajor_km":6861.1701960354,"source":"CELESTRAK","updated_at":"2026-09-20T09:00:43.503867Z"}}